Location: Crescent
(42.8242°N, 73.7329°W)
Time: 05:59:56
(UTC+00:00)

Vanguard 2 Rocket - Pass Details

Date: 18 February 2026
Orbit: 553 x 3286 km, 32.9° (Epoch: 13 March)

Event Time Altitude Azimuth Distance (km) Brightness Sun altitude
Rises 15:22:55 0° 212° (SSW) 7,123 11.8 30.5°
Reaches altitude 10° 15:28:25 10° 204° (SSW) 6,207 11.7 31.0°
Maximum altitude 15:44:43 33° 150° (SSE) 4,305 13.6 32.4°
Drops below altitude 10° 15:57:59 10° 94° (E) 5,101 11.1 33.3°
Sets 16:01:53 0° 85° (E) 5,760 11.2 33.6°
